(71) Niobe
ephemeris date magn radius delta ra dec elong phase
Opposition13 Jun 202510.62.341 AU1.419 AU17h21m-55°32'147.7°13.4°
Today2 Jul 202510.72.363 AU1.459 AU16h59m-52°05'144.7°14.4°
(71) Niobe - 2025-07-02
astro.vanbuitenen.nl


 
-1 year
-1 month
-1 day
Now
+1 day
+1 month
+1 year

The interactive orbit chart above shows the body's path through the solar system and its position at the given date. Green and blue lines are shown perpendicular to the ecliptic plane: Green if the path is above the ecliptic plane, blue if it is below. (Left-click and drag to rotate the view; Right-click and drag to move the view; Use scroll wheel to zoom in our out.)

The orbital elements of Niobe are:

            e (Eccentricity)                : 0.1769568
            a (Semimajor axis)              : 2.7546232
            i (Inclination)                 : 23.24271
            Ω (Longitude of ascending node) : 315.90888
            ω (Argument of perihelion)      : 267.05075
            M (Mean anomaly)                : 18.04959
            Epoch                           : 2025 May 05

            L (Longitude of perihelion)     : 42.69965
            B (Latitude of perihelion)      : -23.21012
            P (Orbital period in years)     : 4.57            
        

The light curve chart below shows the estimated development of the minor planet's magnitude.


The all-sky chart below shows the path of the minor planet over the same period as the light curve. The current position is marked yellow.





The following chart shows the path of the minor planet in the next few days. The field of view is optimized for (~10x50) binoculars and finderscopes. A more printer-friendly version of the same chart can be found below.




Ephemerides:
Date       Time       RA (2000)    DEC (2000)    delta   radius  elong  phase   PA    magn
2025-07-02 00:00 UT   16 59 03.9   -52 05 55     1.459    2.363  144.7   14.4    45   10.7 
2025-07-02 04:31 UT   16 58 53.9   -52 03 19     1.460    2.364  144.6   14.4    45   10.7 
2025-07-03 00:00 UT   16 58 11.5   -51 52 03     1.464    2.365  144.3   14.5    47   10.8 
2025-07-04 00:00 UT   16 57 21.6   -51 38 01     1.468    2.366  143.8   14.7    48   10.8 
2025-07-05 00:00 UT   16 56 34.4   -51 23 48     1.473    2.367  143.3   14.9    50   10.8 
2025-07-06 00:00 UT   16 55 49.7   -51 09 26     1.478    2.368  142.8   15.1    52   10.8 
2025-07-07 00:00 UT   16 55 07.6   -50 54 55     1.483    2.370  142.2   15.2    54   10.8 
2025-07-08 00:00 UT   16 54 28.2   -50 40 16     1.488    2.371  141.7   15.4    55   10.8 
2025-07-09 00:00 UT   16 53 51.4   -50 25 29     1.494    2.372  141.1   15.6    57   10.8 
2025-07-10 00:00 UT   16 53 17.3   -50 10 37     1.499    2.374  140.5   15.8    58   10.9 
2025-07-11 00:00 UT   16 52 45.8   -49 55 39     1.505    2.375  139.9   16.0    60   10.9 
2025-07-12 00:00 UT   16 52 16.9   -49 40 35     1.512    2.376  139.3   16.2    61   10.9 
2025-07-13 00:00 UT   16 51 50.6   -49 25 28     1.518    2.378  138.6   16.4    63   10.9 
2025-07-14 00:00 UT   16 51 27.0   -49 10 17     1.525    2.379  138.0   16.6    64   10.9 
2025-07-15 00:00 UT   16 51 05.9   -48 55 04     1.531    2.380  137.3   16.8    65   10.9 
2025-07-16 00:00 UT   16 50 47.4   -48 39 48     1.538    2.382  136.7   17.0    66   11.0 
2025-07-17 00:00 UT   16 50 31.5   -48 24 31     1.545    2.383  136.0   17.2    68   11.0 
2025-07-18 00:00 UT   16 50 18.1   -48 09 13     1.553    2.385  135.3   17.5    69   11.0 
2025-07-19 00:00 UT   16 50 07.3   -47 53 54     1.560    2.386  134.6   17.7    70   11.0 
2025-07-20 00:00 UT   16 49 58.9   -47 38 36     1.568    2.387  133.9   17.9    71   11.0 
2025-07-21 00:00 UT   16 49 53.0   -47 23 18     1.576    2.389  133.2   18.1    72   11.1 
2025-07-22 00:00 UT   16 49 49.6   -47 08 02     1.584    2.390  132.4   18.3    73   11.1 
2025-07-23 00:00 UT   16 49 48.6   -46 52 48     1.592    2.391  131.7   18.5    74   11.1 
2025-07-24 00:00 UT   16 49 50.0   -46 37 36     1.600    2.393  131.0   18.7    75   11.1 
2025-07-25 00:00 UT   16 49 53.8   -46 22 27     1.609    2.394  130.3   18.9    76   11.1 
2025-07-26 00:00 UT   16 49 59.9   -46 07 21     1.618    2.396  129.5   19.1    76   11.2 
2025-07-27 00:00 UT   16 50 08.3   -45 52 20     1.627    2.397  128.8   19.3    77   11.2 
2025-07-28 00:00 UT   16 50 19.0   -45 37 22     1.636    2.399  128.0   19.5    78   11.2 
2025-07-29 00:00 UT   16 50 31.9   -45 22 28     1.645    2.400  127.3   19.7    79   11.2 
2025-07-30 00:00 UT   16 50 47.1   -45 07 40     1.654    2.402  126.5   19.9    79   11.2 
2025-07-31 00:00 UT   16 51 04.4   -44 52 57     1.664    2.403  125.8   20.0    80   11.3 
2025-08-01 00:00 UT   16 51 23.8   -44 38 19     1.673    2.404  125.0   20.2    81   11.3 


    Terminology:
            
    delta:  distance between minor planet and earth in AU
    radius: distance between minor planet and sun in AU
    magn:   magnitude (brightness) estimate    
    ra:     right ascension in hours (24h = 360deg)
    dec:    declination in degrees
    elong:  elongation in degrees (angle sun-earth-minor planet)    
    phase:  phase angle in degrees (angle sun-minor planet-earth)        
    AU:     Astronomical Unit (mean distance between earth and sun: 149597870.7 km
    

Orbital elements provided by the MPC (Minor Planet Center).
Calculations by a modified version of AAPlus, a C# implementation of the AA+ project by PJ Naughter from the algorithms presented in the book "Astronomical Algorithms" by Jean Meeus.
NGC2000 dso catalog and star labels from VizieR as provided by the Strasbourg astronomical Data Center.
Tycho2 catalog from the ESO archive.